Location: Observatory
(52.1446°N, 0.4624°W)
Time: 22:37:12
(UTC+00:00)

ISS - Pass Details

Date: 10 January 2018
Orbit: 402 x 407 km, 51.6° (Epoch: 22 January)

Event Time Altitude Azimuth Distance (km) Brightness Sun altitude
Exits shadow 05:31:12 43° 126° (SE) 580 -2.7 -22.9°
Drops below altitude 10° 05:33:35 10° 110° (ESE) 1,467 0.1 -22.6°
Sets 05:35:41 0° 107° (ESE) 2,328 1.5 -22.2°
